This is the latest recevied weather packets stored in our database for station/object W0WC. If no packets are shown the sender has not sent any weather packets the latest 10 day(s).
| Time | Temp. | Humidity | Pressure | Rain* | Wind** | Luminosity | Snow |
|---|---|---|---|---|---|---|---|
| 1788456363 | 35° C | 42% | 1015.6 hPa | 0 mm | - | 702 W/m² | - |
| 1788456058 | 35° C | 43% | 1015.7 hPa | 0 mm | - | 692 W/m² | - |
| 1788455758 | 35.56° C | 42% | 1015.6 hPa | 0 mm | - | 684 W/m² | - |
| 1788455454 | 34.44° C | 44% | 1015.8 hPa | 0 mm | - | 681 W/m² | - |
| 1788455152 | 33.89° C | 45% | 1015.7 hPa | 0 mm | - | 677 W/m² | - |
| 1788454848 | 34.44° C | 45% | 1015.8 hPa | 0 mm | - | 672 W/m² | - |
| 1788454545 | 34.44° C | 44% | 1016 hPa | 0 mm | - | 662 W/m² | - |
| 1788454240 | 33.89° C | 45% | 1015.9 hPa | 0 mm | - | 653 W/m² | - |
| 1788453935 | 33.33° C | 46% | 1015.9 hPa | 0 mm | - | 646 W/m² | - |
| 1788453631 | 33.33° C | 46% | 1016.2 hPa | 0 mm | - | 645 W/m² | - |
| 1788453326 | 33.33° C | 46% | 1015.9 hPa | 0 mm | - | 636 W/m² | - |
| 1788453022 | 33.33° C | 46% | 1016.2 hPa | 0 mm | - | 627 W/m² | - |
| 1788452718 | 33.33° C | 46% | 1016.1 hPa | 0 mm | - | 619 W/m² | - |
| 1788452413 | 32.78° C | 47% | 1016 hPa | 0 mm | - | 609 W/m² | - |
| 1788452109 | 32.78° C | 47% | 1016 hPa | 0 mm | - | 600 W/m² | - |
| 1788451805 | 32.78° C | 47% | 1016 hPa | 0 mm | - | 590 W/m² | - |
| 1788451503 | 32.78° C | 47% | 1016.1 hPa | 0 mm | - | 570 W/m² | - |
| 1788451203 | 32.78° C | 48% | 1016.1 hPa | 0 mm | - | 568 W/m² | - |
| 1788450902 | 32.78° C | 48% | 1016.2 hPa | 0 mm | - | 546 W/m² | - |
| 1788450598 | 31.67° C | 51% | 1016.5 hPa | 0 mm | - | 528 W/m² | - |
| 1788450294 | 31.67° C | 50% | 1016.2 hPa | 0 mm | - | 532 W/m² | - |
| 1788449989 | 32.22° C | 49% | 1016.3 hPa | 0 mm | - | 524 W/m² | - |
| 1788449685 | 31.67° C | 50% | 1016.3 hPa | 0 mm | - | 511 W/m² | - |
| 1788449381 | 31.67° C | 50% | 1016.1 hPa | 0 mm | - | 497 W/m² | - |
| 1788449077 | 31.11° C | 51% | 1016.3 hPa | 0 mm | - | 483 W/m² | - |
* Rain latest hour (hover to see other rain measurements)
** Current wind speed in m/s (hover to see current wind gust speed)